Flag for Canada Weather past 2 weeks in Pictou County, Nova Scotia, Canada

Now
65 °F

Mild.


Feels Like: 65 °F
Forecast: 54 / 72 °F
Wind: 3 mph from East

Location: Caribou Point

Current Time: May 27, 2015 at 3:45:42 PM

Latest Report: May 27, 2015 at 3:00 PM


Visibility: N/A

Pressure: 30.07 "Hg

Humidity: 73%

Dew point: 56 °F

Location of Pictou CountyLocation

Historic Weather in Pictou County — Graph

°F

Pictou County temperature yesterday

Maximum temperature yesterday: 66 °F (at 4:00 PM)
Minimum temperature yesterday: 56 °F (at 6:00 AM)
Average temperature yesterday: 60 °F

Past Weeks' High & Low Weather Summary

 TemperatureHumidityPressure
High82 °F (May 25, 4:00 PM)100% (May 12, 9:00 PM)30.32 "Hg (May 12, 9:00 PM)
Low35 °F (May 14, 3:00 AM)22% (May 25, 5:00 PM)29.43 "Hg (May 20, 6:00 PM)
Average52 °F71%29.98 "Hg
* Reported May 12 2:00 PM — May 27 2:00 PM, Pictou County, Weather by CustomWeather, © 2015

Note: Actual official high and low records may vary slightly from our data, if they occured in-between our weather recording intervals... More about our weather records

Advertising

Pictou County weather history for previous 24 hours

 ConditionsComfort  
Time TempWeatherWind HumidityBarometerVisibility
2:00 PM
Wed, May 27
62 °FCool.8 mph81%30.09 "HgN/A
1:00 PM62 °FMild.5 mph76%30.10 "HgN/A
12:00 PM61 °FCool.2 mph81%30.11 "HgN/A
11:00 AM60 °FCool.3 mph82%30.11 "HgN/A
10:00 AM57 °FCool.3 mph82%30.11 "HgN/A
9:00 AM63 °FMild.7 mph82%30.12 "HgN/A
8:00 AM61 °FCool.12 mph83%30.09 "HgN/A
7:00 AM58 °FCool.9 mph88%30.07 "HgN/A
6:00 AM56 °FCool.10 mph94%30.06 "HgN/A
5:00 AM56 °FCool.10 mph94%30.04 "HgN/A
4:00 AM56 °FCool.13 mph94%30.04 "HgN/A
3:00 AM57 °FCool.9 mph93%30.04 "HgN/A
2:00 AM57 °FCool.12 mph93%30.04 "HgN/A
1:00 AM58 °FCool.14 mph90%30.04 "HgN/A
12:00 AM56 °FCool.12 mph94%30.03 "HgN/A
11:00 PM
Tue, May 26
59 °FCool.12 mph87%30.02 "HgN/A
10:00 PM59 °FCool.10 mph87%30.04 "HgN/A
9:00 PM60 °FCool.14 mph85%30.02 "HgN/A
8:00 PM61 °FCool.14 mph83%30.02 "HgN/A
7:00 PM63 °FMild.10 mph81%30.02 "HgN/A
6:00 PM64 °FMild.14 mph81%30.01 "HgN/A
5:00 PM66 °FMild.16 mph74%30.02 "HgN/A
4:00 PM66 °FMild.15 mph75%30.02 "HgN/A
3:00 PM64 °FMild.15 mph76%30.03 "HgN/A
Weather by CustomWeather, © 2015

See weather overviewHow to use our weather pages